Regional Weather Roundup
Issued by NWS

Home | Current Version | Previous Version | Text Only | Print | Product List | Glossary On
Versions: 1 2 3 4 5 6 7 8 9 10 11 12 13 14 15 16 17 18 19 20 21 22 23 24 25 26 27 28 29 30 31 32 33 34 35 36 37 38 39 40 41 42 43 44 45 46 47 48 49 50
000
ASUS45 KBOU 030710
RWRCO

WEATHER ROUNDUP FOR COLORADO
NATIONAL WEATHER SERVICE DENVER/BOULDER CO
100 AM MDT FRI JUL 03 2015

NOTE: "FAIR" INDICATES FEW OR NO CLOUDS BELOW 12000 FEET WITH NO
SIGNIFICANT WEATHER AND/OR OBSTRUCTIONS TO VISIBILITY.

COZ001>005-013-030-031-030800-
...NORTHWEST COLORADO...

CITY           SKY/WX    TMP DP  RH WIND       PRES   REMARKS
CRAIG          PTCLDY    68  45  43 NE9       30.18R
HAYDEN         PTCLDY    64  43  45 E10       30.21S
MEEKER         PTCLDY    64  45  49 E3        30.17R
MOUNT WERNER   NOT AVBL
STEAMBOAT SPGS PTCLDY    61  44  53 CALM      30.24S
WALDEN         CLEAR     50  46  87 E5        30.35F
$$

COZ006>008-011-030800-
...WEST CENTRAL VALLEYS...

CITY           SKY/WX    TMP DP  RH WIND       PRES   REMARKS
GRAND JUNCTION CLEAR     76  50  40 E10       30.00R
MONTROSE       PTCLDY    75  49  39 E21       30.12S
EAGLE          CLEAR     63  46  55 CALM      30.25R
RIFLE          PTCLDY    69  42  37 S3        30.10R
DELTA          PTCLDY    74  50  43 N6        30.08S
NUCLA          PTCLDY    72  48  43 E7        30.17R
$$

COZ017>023-064>068-030800-
...SOUTHWEST COLORADO...

CITY           SKY/WX    TMP DP  RH WIND       PRES   REMARKS
DURANGO        MOCLDY    60  51  72 E5        30.30R
CORTEZ         CLEAR     72  53  51 SE6       30.20S
PAGOSA SPRINGS MOCLDY    57  55  91 CALM      30.38S
TELLURIDE      PTCLDY    60  47  61 CALM      30.44R
WOLF CREEK PAS NOT AVBL
$$

COZ009-010-012-014-032>034-037-058>063-030800-
...CENTRAL COLORADO...

CITY           SKY/WX    TMP DP  RH WIND       PRES   REMARKS
ASPEN          CLEAR     58  42  55 SW7       30.30S
BUENA VISTA    PTCLDY    52  48  87 NW5       30.41R
COPPER MTN     PTCLDY    54  39  58 S10       30.64S
BERTHOUD PASS  CLOUDY    43  34  70 SW7       30.69S
COTTONWOOD PAS NOT AVBL
GUNNISON       CLEAR     55  45  67 N6        30.38R
KREMMLING      PTCLDY    59  45  58 CALM      30.32F
LEADVILLE      PTCLDY    43  43 100 E5        30.50S
MONARCH PASS   CLEAR     45  37  76 E12       30.74S
SALIDA         PTCLDY    55  49  82 W8        30.45S
SUNLIGHT       CLEAR     55  39  54 NE6       30.55S
WILKERSON PASS CLOUDY    46  41  81 SW7       30.63F
$$

COZ069>075-030800-
...SAN LUIS VALLEY/SANGRE DE CRISTO MOUNTAINS...

CITY           SKY/WX    TMP DP  RH WIND       PRES   REMARKS
ALAMOSA        CLOUDY    54  52  93 E6        30.35R
LA VETA PASS   MOCLDY    50  45  81 MISG      30.53F
SAGUACHE       PTCLDY    52  50  93 CALM      30.40R
$$

COZ035-036-038>040-030800-
...NORTHERN COLORADO FRONT RANGE...

CITY           SKY/WX    TMP DP  RH WIND       PRES   REMARKS
DENVER INTL AP PTCLDY    60  57  89 S8        30.21F
DMNS CITY PARK   N/A     62  60  93 SE6       30.20S
AURORA         PTCLDY    59  59  99 S7        30.23F
FRONT RANGE AP CLEAR     63  59  88 S6        30.22F
ERIE MUNI ARPT PTCLDY    61  59  93 CALM      30.20R
BOULDER MUN AP PTCLDY    59  59 100 CALM      30.20S
CENTENNIAL     PTCLDY    60  57  89 SE7       30.23F
BROOMFIELD     PTCLDY    61  57  88 S3        30.22F
FORT COLLINS   PTCLDY    61  57  88 S5        30.21R
LONGMONT       PTCLDY    63  59  87 CALM      30.21S
$$

COZ041-046-047-076>085-087-088-030800-
...PIKES PEAK/PALMER DIVIDE AND SOUTHERN FOOTHILLS...

CITY           SKY/WX    TMP DP  RH WIND       PRES   REMARKS
COLO. SPRINGS  CLOUDY    61  53  75 NW6       30.29F
A. F. ACADEMY  MOCLDY    60  53  76 SE2       30.29F
ELLICOTT       CLOUDY   N/A N/A N/A CALM      30.24F
FALCON         CLOUDY    58  54  88 NW5       30.32F
FORT CARSON    CLOUDY    61  56  81 NW9       30.25F
LIMON          MOCLDY    58  56  93 N3        30.22F
MONUMENT HILL  NOT AVBL
TRINIDAD       MOCLDY    62  59  90 NW8       30.23F
$$

COZ042>045-048>051-090-091-030800-
...NORTHEAST COLORADO...

CITY           SKY/WX    TMP DP  RH WIND       PRES   REMARKS
GREELEY ARPT   CLEAR     63  61  94 CALM      30.19R
AKRON          MOCLDY    65  57  75 S7        30.15F
BURLINGTON     CLOUDY    66  59  78 SE8       30.13F
WRAY           PTCLDY    63  57  80 N3        30.11S
STERLING       NOT AVBL
HOLYOKE        CLEAR     63  59  88 CALM      30.11F
FORT MORGAN    MOCLDY    60  57  89 W7        30.17S
$$

COZ086-089-092>099-030800-
...SOUTHEAST COLORADO...

CITY           SKY/WX    TMP DP  RH WIND       PRES   REMARKS
PUEBLO         MOCLDY    70  54  56 N3        30.18S
LA JUNTA       MOCLDY    66  56  70 N23G38    30.14R
LAMAR          MOCLDY    67  62  84 SW5       30.08S
SPRINGFIELD      N/A     63  61  93 W3        30.14S
$$


USA.gov is the U.S. government's official web portal to all federal, state and local government web resources and services.